FW2728 Weather Reports


Display with metric or nautical units.
time (UTC)temp
F
wind
direction
speed
MPH
gust
MPH
rain 1hr
in
rain 24hr
in
rain mn
in
humidity
%
barometer
mb
20260509020515 74 159 1.0 1.0 0.00 0.04 0.04 80 1009.2
20260509015516 74 49 1.0 1.0 0.00 0.04 0.04 80 1009.3
20260509014536 74 49 1.0 1.0 0.00 0.04 0.04 80 1009.3
20260509013516 74 51 1.0 1.0 0.00 0.04 0.04 79 1009.1
20260509012516 74 46 1.0 1.0 0.00 0.04 0.04 79 1009.1
20260509011517 74 47 1.0 1.0 0.00 0.04 0.04 79 1008.9
20260509010517 74 222 1.0 2.0 0.00 0.04 0.04 79 1008.8
20260509005537 74 222 1.0 2.0 0.00 0.04 0.04 79 1008.6
20260509004517 74 222 2.0 3.0 0.00 0.04 0.04 78 1008.5
20260509003538 74 138 1.0 4.0 0.00 0.04 0.04 78 1008.5
20260509002517 75 50 1.0 3.0 0.00 0.04 0.04 77 1008.5
20260509001518 75 221 2.0 4.0 0.00 0.04 0.04 77 1008.6
20260509000518 75 219 2.0 5.0 0.00 0.04 0.04 76 1008.7
20260508235518 75 199 1.0 7.0 0.00 0.04 0.04 76 1008.8
20260508234518 75 214 1.0 9.0 0.00 0.04 0.04 76 1008.8
20260508233515 75 217 2.0 6.0 0.00 0.04 0.04 75 1008.8
20260508232556 75 221 2.0 6.0 0.00 0.04 0.04 75 1008.8
20260508231516 76 219 2.0 5.0 0.00 0.04 0.04 73 1008.8
20260508230516 76 124 1.0 4.0 0.00 0.04 0.04 72 1008.7
20260508225516 75 224 2.0 6.0 0.00 0.04 0.04 74 1008.7
20260508224537 75 213 2.0 6.0 0.00 0.04 0.04 73 1008.7
20260508223516 75 207 2.0 7.0 0.00 0.04 0.04 73 1008.7
20260508222517 75 227 2.0 7.0 0.00 0.04 0.04 74 1008.8
20260508221517 75 189 2.0 5.0 0.00 0.04 0.04 72 1008.9
20260508220516 74 230 2.0 5.0 0.00 0.04 0.04 74 1009.0
20260508215557 73 226 2.0 5.0 0.00 0.04 0.04 73 1009.1
20260508214538 73 161 2.0 5.0 0.00 0.04 0.04 74 1009.3
20260508213517 72 218 2.0 7.0 0.00 0.04 0.04 76 1009.5
20260508212517 71 202 1.0 5.0 0.01 0.04 0.04 79 1009.6
20260508211538 70 232 3.0 6.0 0.01 0.04 0.04 82 1010.0
20260508210518 69 221 3.0 7.0 0.04 0.04 0.04 84 1010.1
20260508205538 69 221 1.0 5.0 0.04 0.04 0.04 85 1010.2
20260508204518 68 104 1.0 2.0 0.04 0.04 0.04 86 1010.3
20260508203518 69 203 2.0 8.0 0.04 0.04 0.04 84 1009.8
20260508202516 70 71 1.0 4.0 0.04 0.04 0.04 81 1010.1
20260508201516 71 46 1.0 2.0 0.04 0.04 0.04 77 1010.9
20260508200516 71 223 2.0 4.0 0.01 0.01 0.01 70 1011.4
20260508195516 72 222 4.0 7.0 0.00 0.00 0.00 68 1011.7
20260508194517 72 224 3.0 5.0 0.00 0.00 0.00 67 1011.5
20260508193517 73 224 3.0 4.0 0.00 0.00 0.00 66 1011.4
20260508192517 74 222 3.0 5.0 0.00 0.00 0.00 64 1011.3
20260508191517 73 223 4.0 8.0 0.00 0.00 0.00 65 1011.3
20260508190517 73 223 4.0 7.0 0.00 0.00 0.00 66 1011.6
20260508185517 73 222 3.0 5.0 0.00 0.00 0.00 66 1011.7
20260508184518 74 223 6.0 8.0 0.00 0.00 0.00 65 1011.8
20260508183518 74 217 2.0 8.0 0.00 0.00 0.00 65 1011.8
20260508182516 75 216 2.0 5.0 0.00 0.00 0.00 64 1012.0
20260508181516 75 222 2.0 4.0 0.00 0.00 0.00 62 1012.2
20260508180516 75 160 2.0 5.0 0.00 0.00 0.00 61 1011.9
20260508175515 74 219 2.0 5.0 0.00 0.00 0.00 63 1012.0
20260508174536 73 194 3.0 7.0 0.00 0.00 0.00 65 1012.3
20260508173515 73 170 1.0 4.0 0.00 0.00 0.00 65 1012.6
20260508172516 72 182 1.0 5.0 0.00 0.00 0.00 65 1012.8
20260508171536 73 220 2.0 6.0 0.00 0.00 0.00 65 1013.1
20260508170516 73 131 1.0 4.0 0.00 0.00 0.00 63 1013.1
20260508165536 73 140 1.0 5.0 0.00 0.00 0.00 63 1013.1
20260508164537 72 191 1.0 5.0 0.00 0.00 0.00 64 1013.2
20260508163536 71 176 2.0 7.0 0.00 0.00 0.00 65 1013.2
20260508162517 69 133 2.0 5.0 0.00 0.00 0.00 67 1013.4
20260508161517 68 185 1.0 6.0 0.00 0.00 0.00 69 1013.7
20260508160517 68 168 1.0 3.0 0.00 0.00 0.00 69 1013.9
20260508155537 68 119 1.0 5.0 0.00 0.00 0.00 70 1014.1
20260508154517 67 117 1.0 5.0 0.00 0.00 0.00 71 1014.4
20260508153517 67 211 1.0 5.0 0.00 0.00 0.00 71 1014.5
20260508152518 67 207 2.0 5.0 0.00 0.00 0.00 70 1014.5
20260508151518 67 218 1.0 3.0 0.00 0.00 0.00 70 1014.6
20260508150518 67 155 1.0 3.0 0.00 0.00 0.00 69 1014.7
20260508145518 67 112 2.0 4.0 0.00 0.00 0.00 69 1014.4
20260508144518 67 156 1.0 3.0 0.00 0.00 0.00 69 1014.6
20260508143515 68 144 1.0 4.0 0.00 0.00 0.00 68 1014.6
20260508142515 68 110 1.0 4.0 0.00 0.00 0.00 67 1014.5
20260508141516 68 143 0.0 2.0 0.00 0.00 0.00 68 1014.7
20260508140516 68 220 1.0 3.0 0.00 0.00 0.00 68 1014.8
20260508135536 67 75 1.0 3.0 0.00 0.00 0.00 70 1014.8
20260508134516 66 91 1.0 3.0 0.00 0.00 0.00 72 1014.7
20260508133536 66 117 1.0 5.0 0.00 0.00 0.00 73 1014.6
20260508132517 65 83 1.0 3.0 0.00 0.00 0.00 75 1014.6
20260508131517 64 80 0.0 2.0 0.00 0.00 0.00 79 1014.7
20260508130517 62 88 1.0 3.0 0.00 0.00 0.00 86 1014.9
20260508125517 60 93 0.0 1.0 0.00 0.00 0.00 91 1015.1
20260508124517 59 78 0.0 1.0 0.00 0.00 0.00 92 1015.0
20260508123518 59 69 0.0 1.0 0.00 0.00 0.00 92 1015.0
20260508122518 58 51 0.0 2.0 0.00 0.00 0.00 92 1015.3
20260508121518 58 60 0.0 1.0 0.00 0.00 0.00 92 1015.0
20260508120518 58 72 0.0 2.0 0.00 0.00 0.00 91 1014.9
20260508115518 58 67 0.0 1.0 0.00 0.00 0.00 90 1014.8
20260508114518 59 86 0.0 1.0 0.00 0.00 0.00 90 1014.9
20260508113515 59 33 0.0 1.0 0.00 0.00 0.00 89 1015.1
20260508112516 59 79 0.0 2.0 0.00 0.00 0.00 89 1015.0
20260508111536 60 86 1.0 2.0 0.00 0.00 0.00 88 1015.1
20260508110557 60 77 0.0 2.0 0.00 0.00 0.00 87 1015.2
20260508105536 60 23 0.0 1.0 0.00 0.00 0.00 87 1015.2
20260508104516 60 65 1.0 2.0 0.00 0.00 0.00 86 1014.8
20260508103516 60 14 0.0 1.0 0.00 0.00 0.00 86 1014.9
20260508102617 60 265 1.0 2.0 0.00 0.00 0.00 87 1014.4
20260508101517 60 241 0.0 2.0 0.00 0.00 0.00 87 1014.1
20260508100517 60 105 0.0 1.0 0.00 0.00 0.00 86 1014.2
20260508095517 61 340 0.0 1.0 0.00 0.00 0.00 86 1014.5
20260508094517 61 70 0.0 1.0 0.00 0.00 0.00 86 1014.4
20260508093517 61 46 0.0 1.0 0.00 0.00 0.00 85 1014.4
20260508092538 60 231 0.0 1.0 0.00 0.00 0.00 86 1014.4
20260508091518 60 101 0.0 1.0 0.00 0.00 0.00 85 1014.5
20260508090515 60 247 0.0 1.0 0.00 0.00 0.00 86 1014.5
20260508085518 60 67 0.0 2.0 0.00 0.00 0.00 85 1014.4
20260508084518 61 44 0.0 1.0 0.00 0.00 0.00 85 1014.4
20260508083515 61 122 0.0 1.0 0.00 0.00 0.00 85 1014.5
20260508082516 61 74 1.0 3.0 0.00 0.00 0.00 85 1014.6
20260508081516 61 79 1.0 3.0 0.00 0.00 0.00 84 1014.9
20260508080516 62 69 0.0 2.0 0.00 0.00 0.00 83 1015.1
20260508075516 62 64 0.0 2.0 0.00 0.00 0.00 83 1015.4
20260508074536 62 37 0.0 1.0 0.00 0.00 0.00 82 1015.7
20260508073516 61 183 0.0 1.0 0.00 0.00 0.00 82 1015.8
20260508072517 62 25 0.0 1.0 0.00 0.00 0.00 81 1015.6
20260508071517 62 59 0.0 1.0 0.00 0.00 0.00 81 1015.7
20260508070517 61 56 0.0 1.0 0.00 0.00 0.00 81 1015.5
20260508065517 61 52 0.0 1.0 0.00 0.00 0.00 81 1015.5
20260508064517 61 49 0.0 2.0 0.00 0.00 0.00 81 1015.5
20260508063518 61 69 0.0 1.0 0.00 0.00 0.00 81 1015.6
20260508062518 61 50 0.0 1.0 0.00 0.00 0.00 81 1015.8
20260508061518 61 65 0.0 2.0 0.00 0.00 0.00 81 1015.8
20260508060518 61 75 0.0 1.0 0.00 0.00 0.00 80 1016.0
20260508055539 61 348 0.0 2.0 0.00 0.00 0.00 80 1016.1
20260508054515 61 113 0.0 1.0 0.00 0.00 0.00 80 1016.1
20260508053515 61 360 0.0 1.0 0.00 0.00 0.00 81 1016.2
20260508052516 61 125 0.0 1.0 0.00 0.00 0.00 81 1016.2
20260508051516 61 56 0.0 1.0 0.00 0.00 0.00 80 1016.2
20260508050516 61 56 0.0 1.0 0.00 0.00 0.00 80 1016.1
20260508045517 61 64 0.0 2.0 0.00 0.00 0.00 80 1016.2
20260508044518 61 63 0.0 1.0 0.00 0.00 0.00 79 1016.1
20260508043517 62 60 0.0 2.0 0.00 0.00 0.00 78 1016.0
20260508042517 62 49 0.0 2.0 0.00 0.00 0.00 77 1016.0
20260508041517 62 57 0.0 2.0 0.00 0.00 0.00 77 1016.2
20260508040519 62 73 0.0 1.0 0.00 0.00 0.00 76 1016.0
20260508035518 62 35 0.0 3.0 0.00 0.00 0.00 75 1016.0
20260508034538 62 73 0.0 1.0 0.00 0.00 0.00 75 1015.7
20260508033515 62 59 0.0 1.0 0.00 0.00 0.00 74 1015.8
20260508032515 63 69 0.0 1.0 0.00 0.00 0.00 73 1015.7
20260508031536 63 80 0.0 1.0 0.00 0.00 0.00 72 1015.4
20260508030516 64 60 0.0 1.0 0.00 0.00 0.00 70 1015.4
20260508025516 64 60 0.0 2.0 0.00 0.00 0.00 68 1015.4
20260508024516 64 80 0.0 1.0 0.00 0.00 0.00 67 1015.3
20260508023537 65 68 0.0 1.0 0.00 0.00 0.00 66 1015.3
20260508022516 65 206 0.0 1.0 0.00 0.00 0.00 66 1015.4
20260508021517 65 273 0.0 1.0 0.00 0.00 0.00 67 1015.4